FENGYUN 1C DEB

Satellite information

Favourite Embed

Satellite Type and Status

DEBRISIN ORBIT

Key statistics

Satellite FENGYUN 1C DEB at a glance.

Uptime

9615

Days in orbit

Revolutions

≈ 14.1

Per day

Orbit

SSO

Sun Synchronous Orbit

Inclination

98.7

Latest

Satellite identification and parameters

Extended collection of information and parameters for FENGYUN 1C DEB.

Object identification

Identified? True

Debris? True

Object name: FENGYUN 1C DEB

International designator: 1999-025HV

Object number (NORAD): 29923

Object ID (CCSDS): 29923

Country: PEOPLES REPUBLIC OF CHINA (PRC)

Current information (Y/N): Y

RCS size: SMALL

Orbital parameters

Period: 101.865 minutes

Inclination: 98.6924 deg

SMA: 7225.109 km

Apoapsis: 860.642 km

Periapsis: 833.306 km

RAAN: 258.362 deg

Eccentricy: 0.00189174

Argument of periapsis: 95.0268 deg

Mean anomaly: 290.4691 deg

Mean motion: 14.13631405 rev/day

Mean motion (dot): 0.00001428 rev/day2

B* drag term: 0.00077796409 1/REarth

Two-line elements (TLE)

Creation date: Sept. 4, 2025, 10:13 a.m.

Reference frame: TEME

Reference center: EARTH

Epoch: Sept. 4, 2025, 6:57 a.m. UTC

TLE line 0: 0 FENGYUN 1C DEB

TLE line 1: 1 29923U 99025HV 25247.28969398 .00001428 00000-0 77796-3 0 9998

TLE line 2: 2 29923 98.6924 258.3620 0018917 95.0268 290.4691 14.13631405958705

Live tracking on map

Real-time ground track for satellite FENGYUN 1C DEB.

In-orbit conjunctions

A list of the most updated potential collisions computed for object FENGYUN 1C DEB.

Target Orbit TCA Probability of collision Miss distance Type
FENGYUN 1C DEB SSO 2025-02-22 04:51:21 0.0001573719 83.0 (m) DEBRIS
COSMOS 2406 LEO 2025-01-18 13:05:29 0.0002874291 561.0 (m) PAYLOAD

Associated space launch

Chinese polar orbiting meteorological satellite

FENGYUN 1C DEB was lifted into orbit during the mission ‘Long March 4B | Feng Yun 1C’, on board a Long March 4B space rocket.

The launch took place on May 10, 1999, 1:33 a.m. from Launch Complex 7.

For more information about the launch, click the button.

Launch to space Long March 4B | Feng Yun 1C
Long March 4B | Feng Yun 1C

Agency: N/A

Status: Launch Successful

Launch date: May 10, 1999, 1:33 a.m. UTC

Rocket: Long March 4B

Launch pad: Launch Complex 7

Location: Taiyuan Satellite Launch Center, People's Republic of China

...

Latest news about this satellite

There are no fresh news available about this satellite. Check back as we update our databases every day.


Newsletter sign-up

Weekly statistics, charts and insights to help you stay on top of the space industry.